Погода в Виндзоре

Великобритания     51°28′49″N   0°37′27″E
темп.,
°C
ветер,
м/с
пор.,
м/с
влажн.,
%
обл.,
%
осадки,
мм/ч
давл.,
гПа
погр.,
м
29 июня, ср
ср2901:00+15ююв41162100 0.0 1014454
04:00+15ююв41075100 0.0 1012574
07:00+15ю389151 0.5 1012516
10:00+16ю4782100 0.4 1012768
13:00+22ю684293 0.4 10112111
16:00+20ююз5647100 0.0 10112000
19:00+18ююз5652100 0.0 10101282
22:00+15ююз3669100 0.0 1011370
30 июня, чт
чт3001:00+14ююз3779100 0.0 1012421
04:00+13ю2485100 0.1 1011250
07:00+13ююз2480100 0.1 1012383
10:00+16ю3461100 0.0 10121026
13:00+19ю3446100 0.1 10111865
16:00+20ююз4544100 0.7 10111852
19:00+17зюз566018 1.1 1011899
22:00+13юз388088 0.4 1013385
1 июля, пт
пт101:00+11юз388393 0.4 1014282
04:00+12юз259373 0.4 1014221
07:00+12зюз49855 0.4 1015385
10:00+17зюз565710 0.0 10161226
13:00+21юз57376 0.0 10162201
16:00+21зюз674396 0.0 10162056
19:00+19зюз575323 0.0 10181273
22:00+15юз38700 0.1 1019422
2 июля, сб
сб201:00+12юз39850 0.1 1020305
04:00+11ююз3990100 0.0 1019278
07:00+13ююз4108346 0.0 1020532
10:00+19ююз6852100 0.0 10191453
13:00+22юз6843100 0.0 10182072
16:00+20зюз685882 0.3 10181338
19:00+17з478063 1.3 1018719
22:00+15зюз38760 0.1 1020482
3 июля, вс
вс301:00+11з38832 0.1 1020230
04:00+11зюз248897 0.0 1020132
07:00+13з248185 0.0 1021238
10:00+18зсз3458100 0.0 10221034
13:00+20зсз454890 0.1 10221791
16:00+21сз4544100 0.0 10221989
19:00+20сз344787 0.0 10231647
22:00+16сз23675 0.0 102484